sat.trackr.live / text

‹ back to catalog

GJZ 01

NORAD 62290 · 2024-238A

PAYLOAD ACTIVE UNKNOWN

§ Identity

Operator
Country
PRC
Launch date
2024-12-12
Launch site
JSC
Launch vehicle
Mass (kg)
RCS (m²)

External: N2YO · Heavens-Above · Gunter

§ Orbital elements

Epoch: 2026-05-25T01:53:59.809344Z

Period
104.71 min
Inclination
59.9149°
Eccentricity
0.0014587
Mean motion
13.75217404 rev/d
Perigee alt
970.2 km
Apogee alt
991.6 km
Semi-major
7,359.0 km
B*
6.9563e-5
RAAN
356.6045°
Arg perigee
216.5704°
Mean anomaly
143.4309°
Rev number
7,242

§ Raw data

GJZ 011 62290U 24238A   26145.07916446 -.00000052  00000+0  69563-4 0  99932 62290  59.9149 356.6045 0014587 216.5704 143.4309 13.75217404 72420

JSON: /api/v1/satellites/62290 · /tle

For live sub-satellite position, see the globe view (requires WebGL).

§ Visibility from observer

Set your observer location to see the next 7 days of passes ≥ 10°. The values pass through the URL so the page stays shareable.

No JS? Fill the form by hand. The geolocation button needs JavaScript.